Flag for Nicaragua Weather past 2 weeks in Managua, Nicaragua

Now
91 °F

Scattered clouds.


Feels Like: 96 °F
Forecast: N/A
Wind: 16 mph from Northeast

Location: Managua A. C. Sandino

Current Time: Jul 28, 2015 at 5:01:59 PM

Latest Report: Jul 28, 2015 at 4:00 PM


Visibility: 6 mi

Pressure: 29.74 "Hg

Humidity: 46%

Dew point: 68 °F

Location of ManaguaLocation

Historic Weather in Managua — Graph

°F

Managua temperature yesterday

Maximum temperature yesterday: 93 °F (at 1:00 PM)
Minimum temperature yesterday: 75 °F (at 5:00 AM)
Average temperature yesterday: 85 °F

Past Weeks' High & Low Weather Summary

 TemperatureHumidityPressure
High93 °F (Jul 17, 2:00 PM)94% (Jul 18, 4:00 PM)29.95 "Hg (Jul 18, 4:00 PM)
Low73 °F (Jul 22, 4:00 AM)39% (Jul 27, 1:00 PM)29.74 "Hg (Jul 25, 3:00 PM)
Average83 °F72%29.86 "Hg
* Reported Jul 13 3:00 PM — Jul 28 3:00 PM, Managua, Weather by CustomWeather, © 2015

Note: Actual official high and low records may vary slightly from our data, if they occured in-between our weather recording intervals... More about our weather records

Advertising

Managua weather history for previous 24 hours

 ConditionsComfort  
Time TempWeatherWind HumidityBarometerVisibility
3:00 PM
Tue, Jul 28
91 °FScattered clouds.16 mph49%29.74 "HgN/A
2:00 PM93 °FScattered clouds.18 mph47%29.77 "Hg6 mi
1:00 PM91 °FScattered clouds.18 mph49%29.77 "Hg6 mi
12:00 PM91 °FScattered clouds.18 mph52%29.80 "HgN/A
11:00 AM88 °FScattered clouds.9 mph59%29.83 "HgN/A
10:00 AM86 °FScattered clouds.9 mph66%29.83 "HgN/A
9:00 AM82 °FDrizzle. Partly sunny.7 mph79%29.83 "Hg6 mi
8:00 AM82 °FScattered clouds.7 mph74%29.83 "HgN/A
7:00 AM79 °FScattered clouds.5 mph89%29.83 "HgN/A
6:00 AM79 °FPartly sunny.7 mph84%29.83 "HgN/A
5:00 AM79 °FPassing clouds.5 mph84%29.83 "HgN/A
4:00 AM79 °FPassing clouds.5 mph84%29.80 "HgN/A
3:00 AM81 °FPassing clouds.5 mph79%29.77 "HgN/A
2:00 AM79 °FPassing clouds.5 mph84%29.80 "HgN/A
1:00 AM79 °FPassing clouds.7 mph84%29.80 "HgN/A
12:00 AM79 °FPassing clouds.5 mph84%29.83 "HgN/A
11:00 PM
Mon, Jul 27
79 °FPassing clouds.7 mph84%29.83 "HgN/A
10:00 PM81 °FPassing clouds.7 mph79%29.86 "HgN/A
9:00 PM81 °FPassing clouds.9 mph79%29.86 "HgN/A
8:00 PM84 °FPassing clouds.16 mph66%29.83 "HgN/A
7:00 PM88 °FPassing clouds.16 mph59%29.80 "HgN/A
6:00 PM90 °FScattered clouds.9 mph55%29.74 "HgN/A
5:00 PM91 °FScattered clouds.9 mph49%29.74 "HgN/A
Weather by CustomWeather, © 2015

See weather overviewHow to use our weather pages